Rbgn^[z[y[W
メイン
   新天体発見情報
     Comet C/2018 R5 (Lemmon)
投稿するにはまず登録を

フラット表示 前のトピック | 次のトピック
投稿者 スレッド
佐藤裕久
投稿日時: 2018-9-21 2:54
モデレータ
登録日: 2005-6-12
居住地: 日本
投稿: 2676
オンライン
Comet C/2018 R5 (Lemmon)

9月8.2日UT、A. D. GrauerがMt Lemmonサーベイの1.5-m反射望遠鏡で得た画像から外見上の小惑星状
天体を発見した。
小惑星センターのPCCP webpageに公表後、佐藤英貴氏(東京都文京区, iTelescope Sierra Remote 天文台,
0.61-m f/6.5 アストログラフ, Auberry, カリフォルニア州, 遠隔操作;9月9.5日UT、60秒露出12枚の
スタック, 強い集光のある8"のコマがある(FWHM(半値全幅)は近傍の恒星が2".9であるのに対し4".4)が
尾はない。5".0の円形範囲で測定した全光度は19.6等であった)らCCD観測者によって彗星状と観測された。
7月5日, 8月1日と15日のPan-STARRS1 1.8-m反射望遠鏡による発見前の観測があった。

発見位置は次のとおり、

     2018 UT             R.A. (2000) Decl.       Mag.   Observer
     Sept. 8.23378   23 11 51.30   +30 41 27.3   19.0   Grauer
           8.23896   23 11 50.87   +30 41 22.8   19.1     "
           8.24414   23 11 50.51   +30 41 16.2            "
           8.24933   23 11 50.12   +30 41 10.1   19.3     "

楕円軌道要素と位置推算表は次のとおり、

Orbital elements:
    C/2018 R5 (Lemmon)
Epoch 2018 Dec. 28.0 TT = JDT 2458480.5
T 2019 Jan.  9.94035 TT                                 MPCW
q   3.6213615            (2000.0)            P               Q
n   0.00904389     Peri.  178.00227     +0.98875127     -0.00214088
a  22.8156396      Node   171.14299     -0.14713315     +0.16580441
e   0.8412772      Incl.  103.75428     -0.02688430     -0.98615633
P 109
From 135 observations 2018 July 5-Sept. 18, mean residual 0".4.

    C/2018 R5 (Lemmon)
Epoch 2127 Aug. 19.0 TT = JDT 2498160.5
T 2127 Aug. 1.83858 TT                                  MPCW
q   3.6196239            (2000.0)            P               Q
n   0.00889570     Peri.  177.93913     +0.98888534     -0.00059956
a  23.0683164      Node   171.19842     -0.14648998     +0.16707999
e   0.8430911      Incl.  103.66969     -0.02542585     -0.98594316
P 111
From 135 observations 2018 July 5-Sept. 18, mean residual 0".4.

    C/2018 R5 (Lemmon)
Epoch 2018 Mar. 23.0 TT = JDT 2458200.5
T 2019 Jan.  9.95230 TT                                 MPCW
q   3.6212909            (2000.0)            P               Q
n   0.00904586     Peri.  178.00352     +0.98874072     -0.00219822
a  22.8123237      Node   171.13863     -0.14719472     +0.16569391
e   0.8412573      Incl.  103.76097     -0.02693513     -0.98617478
P 109
From 135 observations 2018 July 5-Sept. 18, mean residual 0".4.

Ephemeris:
    C/2018 R5 (Lemmon)
Date    TT    R. A. (2000) Decl.     Delta      r     Elong.  Phase   m1
2018 08 19    23 36 10.0 +35 57 08   3.1361  3.8110   125.3    12.5  19.8
...
2018 09 03    23 18 24.4 +32 17 54   2.9524  3.7746   139.3    10.0  19.6
...
2018 09 11    23 08 23.4 +29 46 33   2.8839  3.7567   145.4     8.7  19.5
...
2018 09 17    23 00 59.1 +27 38 45   2.8486  3.7439   148.7     8.0  19.5
2018 09 18    22 59 46.6 +27 16 24   2.8442  3.7418   149.0     7.9  19.5
2018 09 19    22 58 34.6 +26 53 46   2.8401  3.7397   149.4     7.9  19.5
...
2018 09 25    22 51 36.8 +24 32 57   2.8247  3.7277   150.1     7.7  19.5
...
2018 10 03    22 43 08.9 +21 15 16   2.8279  3.7127   147.7     8.3  19.5
...
2018 10 18    22 30 39.1 +14 57 13   2.9062  3.6874   135.9    10.8  19.5

(CBET 4559、MPEC 2018-S38)

フラット表示 前のトピック | 次のトピック

題名 投稿者 日時
 » Comet C/2018 R5 (Lemmon) 佐藤裕久 2018-9-21 2:54

投稿するにはまず登録を
 
© 1999 Tsutomu Seki.